Time,TemperatureF,DewpointF,PressureIn,WindDirection,WindDirectionDegrees,WindSpeedMPH,WindSpeedGustMPH,Humidity,HourlyPrecipIn,Conditions,Clouds,dailyrainin,SoftwareType,DateUTC
2013-02-27 00:00:00,34.3,37.6,30.16,SE,142,0.0,1.0,87,0.00,,,0.00,meteohub,2013-02-27 05:00:00,
2013-02-27 00:01:00,34.3,37.6,30.16,SE,142,0.0,1.0,87,0.00,,,0.00,meteohub,2013-02-27 05:01:00,
2013-02-27 00:06:00,34.3,37.6,30.16,SE,142,0.0,0.0,87,0.00,,,0.00,meteohub,2013-02-27 05:06:00,
2013-02-27 00:11:00,34.3,37.6,30.16,SE,141,0.0,1.0,87,0.00,,,0.00,meteohub,2013-02-27 05:11:00,
2013-02-27 00:16:00,34.2,37.6,30.16,SE,142,0.0,1.0,87,0.00,,,0.00,meteohub,2013-02-27 05:16:00,
2013-02-27 00:21:00,34.2,37.6,30.16,SE,141,1.0,1.0,87,0.00,,,0.00,meteohub,2013-02-27 05:21:00,
2013-02-27 00:26:00,34.0,37.6,30.15,SE,142,0.0,1.0,88,0.00,,,0.00,meteohub,2013-02-27 05:26:00,
2013-02-27 00:31:00,34.2,37.4,30.14,SE,142,0.0,1.0,88,0.00,,,0.00,meteohub,2013-02-27 05:31:00,
2013-02-27 00:36:00,34.2,36.3,30.14,SE,142,0.0,1.0,88,0.00,,,0.00,meteohub,2013-02-27 05:36:00,
2013-02-27 00:41:00,34.3,36.1,30.14,SE,141,0.0,1.0,88,0.00,,,0.00,meteohub,2013-02-27 05:41:00,
2013-02-27 00:46:00,34.3,36.1,30.14,SE,134,1.0,2.0,88,0.00,,,0.00,meteohub,2013-02-27 05:46:00,
2013-02-27 00:51:00,34.3,36.1,30.14,SE,134,0.0,2.0,87,0.00,,,0.00,meteohub,2013-02-27 05:51:00,
2013-02-27 00:56:00,34.3,37.2,30.14,SE,134,0.0,2.0,87,0.00,,,0.00,meteohub,2013-02-27 05:56:00,
2013-02-27 01:01:00,34.5,37.2,30.14,SE,134,0.0,2.0,86,0.00,,,0.00,meteohub,2013-02-27 06:01:00,
2013-02-27 01:06:00,34.5,37.2,30.13,SE,134,0.0,2.0,86,0.00,,,0.00,meteohub,2013-02-27 06:06:00,
2013-02-27 01:11:00,34.7,37.2,30.13,SE,134,0.0,2.0,86,0.00,,,0.00,meteohub,2013-02-27 06:11:00,
2013-02-27 01:16:00,34.9,37.0,30.12,SSE,150,1.0,4.0,86,0.00,,,0.00,meteohub,2013-02-27 06:16:00,
2013-02-27 01:21:00,35.1,36.0,30.12,ESE,108,0.0,4.0,86,0.00,,,0.00,meteohub,2013-02-27 06:21:00,
2013-02-27 01:26:00,35.1,36.0,30.11,ESE,102,1.0,4.0,85,0.00,,,0.00,meteohub,2013-02-27 06:26:00,
2013-02-27 01:31:00,35.2,36.0,30.11,SE,146,0.0,5.0,85,0.00,,,0.00,meteohub,2013-02-27 06:31:00,
2013-02-27 01:36:00,35.2,36.0,30.10,ESE,117,1.0,5.0,85,0.00,,,0.00,meteohub,2013-02-27 06:36:00,
2013-02-27 01:41:00,35.2,36.9,30.10,East,86,0.0,5.0,85,0.00,,,0.00,meteohub,2013-02-27 06:41:00,
2013-02-27 01:46:00,35.2,36.9,30.10,East,81,0.0,5.0,85,0.00,,,0.00,meteohub,2013-02-27 06:46:00,
2013-02-27 01:51:00,35.2,36.9,30.09,East,82,0.0,4.0,85,0.00,,,0.00,meteohub,2013-02-27 06:51:00,
2013-02-27 01:56:00,35.2,36.9,30.09,ESE,117,1.0,4.0,86,0.00,,,0.00,meteohub,2013-02-27 06:56:00,
2013-02-27 02:01:00,35.2,36.7,30.10,SE,130,0.0,4.0,86,0.00,,,0.00,meteohub,2013-02-27 07:01:00,
2013-02-27 02:06:00,35.2,36.7,30.09,SE,130,0.0,4.0,86,0.00,,,0.00,meteohub,2013-02-27 07:06:00,
2013-02-27 02:11:00,35.2,36.7,30.09,SE,130,0.0,4.0,86,0.00,,,0.00,meteohub,2013-02-27 07:11:00,
2013-02-27 02:16:00,35.2,36.5,30.09,SE,130,0.0,4.0,86,0.00,,,0.00,meteohub,2013-02-27 07:16:00,
2013-02-27 02:21:00,35.2,35.6,30.09,SE,130,0.0,4.0,86,0.00,,,0.00,meteohub,2013-02-27 07:21:00,
2013-02-27 02:27:00,35.2,36.5,30.09,SE,133,0.0,4.0,87,0.00,,,0.00,meteohub,2013-02-27 07:27:00,
2013-02-27 02:32:00,35.2,36.5,30.09,SE,133,0.0,4.0,87,0.00,,,0.00,meteohub,2013-02-27 07:32:00,
2013-02-27 02:37:00,35.2,36.5,30.09,East,97,0.0,2.0,87,0.00,,,0.00,meteohub,2013-02-27 07:37:00,
2013-02-27 02:42:00,35.2,36.5,30.09,East,98,0.0,2.0,87,0.00,,,0.00,meteohub,2013-02-27 07:42:00,
2013-02-27 02:47:00,35.2,36.5,30.09,SE,127,0.0,3.0,88,0.00,,,0.00,meteohub,2013-02-27 07:47:00,
2013-02-27 02:52:00,35.2,36.5,30.09,SE,127,0.0,3.0,88,0.00,,,0.00,meteohub,2013-02-27 07:52:00,
2013-02-27 02:57:00,35.2,36.5,30.08,SE,127,0.0,3.0,88,0.00,,,0.00,meteohub,2013-02-27 07:57:00,
2013-02-27 03:02:00,35.2,36.5,30.09,ENE,78,0.0,2.0,89,0.00,,,0.00,meteohub,2013-02-27 08:02:00,
2013-02-27 03:07:00,35.1,36.5,30.08,ENE,78,0.0,2.0,89,0.00,,,0.00,meteohub,2013-02-27 08:07:00,
2013-02-27 03:12:00,35.1,36.5,30.08,ENE,78,0.0,2.0,90,0.00,,,0.00,meteohub,2013-02-27 08:12:00,
2013-02-27 03:17:00,35.1,36.5,30.09,ENE,78,0.0,2.0,90,0.00,,,0.00,meteohub,2013-02-27 08:17:00,
2013-02-27 03:22:00,34.9,36.5,30.09,ENE,78,0.0,1.0,90,0.00,,,0.00,meteohub,2013-02-27 08:22:00,
2013-02-27 03:27:00,34.7,36.5,30.09,ENE,78,0.0,1.0,90,0.00,,,0.00,meteohub,2013-02-27 08:27:00,
2013-02-27 03:32:00,34.3,36.5,30.08,ENE,78,0.0,1.0,91,0.00,,,0.00,meteohub,2013-02-27 08:32:00,
2013-02-27 03:37:00,34.3,36.5,30.07,East,98,0.0,2.0,91,0.00,,,0.00,meteohub,2013-02-27 08:37:00,
2013-02-27 03:42:00,34.3,36.5,30.07,ESE,115,0.0,4.0,92,0.00,,,0.00,meteohub,2013-02-27 08:42:00,
2013-02-27 03:47:00,34.2,36.5,30.06,ESE,115,0.0,4.0,92,0.00,,,0.00,meteohub,2013-02-27 08:47:00,
2013-02-27 03:52:00,34.2,36.5,30.07,ESE,115,0.0,2.0,92,0.00,,,0.00,meteohub,2013-02-27 08:52:00,
2013-02-27 03:57:00,34.0,36.5,30.07,ESE,115,0.0,2.0,92,0.00,,,0.00,meteohub,2013-02-27 08:57:00,
2013-02-27 04:02:00,34.0,36.5,30.06,ESE,115,0.0,1.0,93,0.00,,,0.00,meteohub,2013-02-27 09:02:00,
2013-02-27 04:07:00,33.8,36.5,30.06,East,101,0.0,1.0,93,0.00,,,0.00,meteohub,2013-02-27 09:07:00,
2013-02-27 04:12:00,33.8,36.5,30.06,East,101,0.0,2.0,93,0.00,,,0.00,meteohub,2013-02-27 09:12:00,
2013-02-27 04:17:00,33.6,36.5,30.06,East,101,0.0,2.0,93,0.00,,,0.00,meteohub,2013-02-27 09:17:00,
2013-02-27 04:22:00,33.6,36.5,30.06,East,101,0.0,2.0,93,0.00,,,0.00,meteohub,2013-02-27 09:22:00,
2013-02-27 04:27:00,33.4,36.5,30.05,East,101,0.0,1.0,94,0.00,,,0.00,meteohub,2013-02-27 09:27:00,
2013-02-27 04:32:00,33.4,36.5,30.05,East,101,0.0,1.0,94,0.00,,,0.00,meteohub,2013-02-27 09:32:00,
2013-02-27 04:37:00,33.4,36.5,30.04,North,355,0.0,1.0,94,0.00,,,0.00,meteohub,2013-02-27 09:37:00,
2013-02-27 04:42:00,33.6,36.3,30.04,NNW,348,0.0,2.0,94,0.00,,,0.00,meteohub,2013-02-27 09:42:00,
2013-02-27 04:47:00,33.6,36.3,30.04,NNW,348,0.0,2.0,94,0.00,,,0.00,meteohub,2013-02-27 09:47:00,
2013-02-27 04:52:00,33.6,36.3,30.04,ESE,113,0.0,5.0,94,0.00,,,0.00,meteohub,2013-02-27 09:52:00,
2013-02-27 04:57:00,33.6,36.5,30.03,SE,140,0.0,5.0,94,0.00,,,0.00,meteohub,2013-02-27 09:57:00,
2013-02-27 05:02:00,33.6,36.5,30.03,ESE,123,0.0,5.0,94,0.00,,,0.00,meteohub,2013-02-27 10:02:00,
2013-02-27 05:07:00,33.6,36.5,30.03,ESE,123,0.0,3.0,94,0.00,,,0.00,meteohub,2013-02-27 10:07:00,
2013-02-27 05:12:00,33.6,36.5,30.03,ESE,123,0.0,2.0,94,0.00,,,0.00,meteohub,2013-02-27 10:12:00,
2013-02-27 05:17:00,33.6,36.5,30.02,ESE,119,0.0,1.0,94,0.00,,,0.00,meteohub,2013-02-27 10:17:00,
2013-02-27 05:22:00,33.6,36.5,30.02,ESE,120,0.0,2.0,95,0.00,,,0.00,meteohub,2013-02-27 10:22:00,
2013-02-27 05:27:00,33.8,36.5,30.01,East,87,2.0,2.0,95,0.00,,,0.00,meteohub,2013-02-27 10:27:00,
2013-02-27 05:32:00,33.8,36.5,30.01,SE,134,1.0,5.0,95,0.00,,,0.00,meteohub,2013-02-27 10:32:00,
2013-02-27 05:37:00,34.0,36.5,30.00,East,93,0.0,5.0,95,0.00,,,0.00,meteohub,2013-02-27 10:37:00,
2013-02-27 05:42:00,34.2,36.5,29.99,East,82,0.0,5.0,95,0.00,,,0.00,meteohub,2013-02-27 10:42:00,
2013-02-27 05:47:00,34.2,36.3,29.99,ESE,115,0.0,4.0,95,0.00,,,0.00,meteohub,2013-02-27 10:47:00,
2013-02-27 05:52:00,34.3,36.3,29.99,ESE,107,1.0,4.0,95,0.00,,,0.00,meteohub,2013-02-27 10:52:00,
2013-02-27 05:57:00,34.3,36.3,29.99,ESE,103,0.0,4.0,95,0.00,,,0.00,meteohub,2013-02-27 10:57:00,
2013-02-27 06:02:00,34.3,36.1,29.99,ESE,118,0.0,4.0,95,0.00,,,0.00,meteohub,2013-02-27 11:02:00,
2013-02-27 06:07:00,34.5,36.3,29.99,ESE,117,0.0,4.0,95,0.00,,,0.00,meteohub,2013-02-27 11:07:00,
2013-02-27 06:12:00,34.9,36.3,29.98,ESE,116,0.0,2.0,95,0.00,,,0.00,meteohub,2013-02-27 11:12:00,
2013-02-27 06:17:00,35.1,36.5,29.99,ESE,115,0.0,2.0,95,0.00,,,0.00,meteohub,2013-02-27 11:17:00,
2013-02-27 06:22:00,35.2,36.5,29.98,ESE,107,2.0,2.0,95,0.00,,,0.00,meteohub,2013-02-27 11:22:00,
2013-02-27 06:27:00,35.4,36.5,29.97,ESE,118,2.0,3.0,95,0.00,,,0.00,meteohub,2013-02-27 11:27:00,
2013-02-27 06:32:00,35.8,36.5,29.97,East,80,0.0,3.0,95,0.00,,,0.00,meteohub,2013-02-27 11:32:00,
2013-02-27 06:37:00,36.0,36.5,29.96,ESE,103,1.0,3.0,95,0.00,,,0.00,meteohub,2013-02-27 11:37:00,
2013-02-27 06:42:00,36.1,36.5,29.96,SE,143,1.0,5.0,95,0.00,,,0.00,meteohub,2013-02-27 11:42:00,
2013-02-27 06:47:00,36.3,36.5,29.96,SSE,168,0.0,5.0,95,0.00,,,0.00,meteohub,2013-02-27 11:47:00,
2013-02-27 06:52:00,36.7,36.5,29.95,SE,146,1.0,5.0,96,0.00,,,0.00,meteohub,2013-02-27 11:52:00,
2013-02-27 06:57:00,36.9,36.3,29.95,ESE,111,1.0,5.0,96,0.00,,,0.00,meteohub,2013-02-27 11:57:00,
2013-02-27 07:02:00,37.0,36.3,29.95,ESE,119,2.0,5.0,96,0.00,,,0.00,meteohub,2013-02-27 12:02:00,
2013-02-27 07:07:00,37.4,36.3,29.94,SSE,157,0.0,8.0,96,0.00,,,0.00,meteohub,2013-02-27 12:07:00,
2013-02-27 07:12:00,37.4,36.1,29.94,ENE,73,1.0,8.0,96,0.00,,,0.00,meteohub,2013-02-27 12:12:00,
2013-02-27 07:17:00,37.6,36.1,29.95,SE,134,5.0,8.0,96,0.00,,,0.00,meteohub,2013-02-27 12:17:00,
2013-02-27 07:22:00,37.8,36.3,29.94,ESE,115,1.0,6.0,96,0.00,,,0.00,meteohub,2013-02-27 12:22:00,
2013-02-27 07:27:00,38.1,36.5,29.94,SE,126,1.0,6.0,96,0.00,,,0.00,meteohub,2013-02-27 12:27:00,
2013-02-27 07:32:00,38.1,36.5,29.93,ESE,109,0.0,6.0,96,0.00,,,0.00,meteohub,2013-02-27 12:32:00,
2013-02-27 07:37:00,38.5,36.5,29.93,SE,140,5.0,7.0,96,0.00,,,0.00,meteohub,2013-02-27 12:37:00,
2013-02-27 07:43:00,38.8,36.5,29.92,SSE,148,4.0,7.0,96,0.00,,,0.00,meteohub,2013-02-27 12:43:00,
2013-02-27 07:47:00,39.0,36.5,29.92,NE,50,1.0,6.0,96,0.00,,,0.00,meteohub,2013-02-27 12:47:00,
2013-02-27 07:53:00,39.4,36.5,29.93,SSE,165,7.0,9.0,96,0.00,,,0.00,meteohub,2013-02-27 12:53:00,
2013-02-27 07:58:00,39.6,36.5,29.92,SSE,157,0.0,9.0,96,0.00,,,0.00,meteohub,2013-02-27 12:58:00,
2013-02-27 08:03:00,39.4,36.5,29.91,ENE,72,2.0,13.0,96,0.00,,,0.00,meteohub,2013-02-27 13:03:00,
2013-02-27 08:08:00,39.6,36.5,29.91,ENE,66,2.0,13.0,96,0.00,,,0.00,meteohub,2013-02-27 13:08:00,
2013-02-27 08:13:00,39.6,36.5,29.91,SE,146,6.0,8.0,96,0.00,,,0.00,meteohub,2013-02-27 13:13:00,
2013-02-27 08:18:00,39.6,36.3,29.91,East,98,0.0,7.0,96,0.00,,,0.00,meteohub,2013-02-27 13:18:00,
2013-02-27 08:23:00,39.6,36.3,29.90,SSE,159,3.0,7.0,96,0.00,,,0.00,meteohub,2013-02-27 13:23:00,
2013-02-27 08:28:00,39.6,36.3,29.91,SSE,168,1.0,7.0,96,0.00,,,0.00,meteohub,2013-02-27 13:28:00,
2013-02-27 08:33:00,39.7,36.3,29.91,East,86,4.0,12.0,96,0.00,,,0.00,meteohub,2013-02-27 13:33:00,
2013-02-27 08:38:00,39.7,36.3,29.90,ESE,104,2.0,13.0,96,0.00,,,0.00,meteohub,2013-02-27 13:38:00,
2013-02-27 08:43:00,39.7,36.5,29.89,SE,136,4.0,13.0,96,0.00,,,0.00,meteohub,2013-02-27 13:43:00,
2013-02-27 08:48:00,39.7,36.5,29.88,SE,145,1.0,10.0,96,0.00,,,0.00,meteohub,2013-02-27 13:48:00,
2013-02-27 08:53:00,39.7,36.5,29.88,South,171,4.0,9.0,96,0.00,,,0.00,meteohub,2013-02-27 13:53:00,
2013-02-27 08:58:00,39.7,36.5,29.89,SE,143,5.0,9.0,96,0.00,,,0.00,meteohub,2013-02-27 13:58:00,
2013-02-27 09:03:00,39.7,36.5,29.89,SE,141,2.0,9.0,96,0.00,,,0.00,meteohub,2013-02-27 14:03:00,
2013-02-27 09:08:00,39.9,36.5,29.89,ESE,118,2.0,11.0,96,0.00,,,0.00,meteohub,2013-02-27 14:08:00,
2013-02-27 09:13:00,39.9,36.5,29.89,ENE,71,4.0,11.0,96,0.00,,,0.00,meteohub,2013-02-27 14:13:00,
2013-02-27 09:18:00,39.9,36.5,29.88,SSE,149,0.0,11.0,96,0.00,,,0.00,meteohub,2013-02-27 14:18:00,
2013-02-27 09:23:00,39.9,36.5,29.88,SSE,161,2.0,9.0,96,0.00,,,0.00,meteohub,2013-02-27 14:23:00,
2013-02-27 09:28:00,40.1,36.5,29.87,SSE,161,2.0,8.0,96,0.00,,,0.00,meteohub,2013-02-27 14:28:00,
2013-02-27 09:33:00,40.3,36.5,29.87,NE,48,2.0,9.0,96,0.00,,,0.00,meteohub,2013-02-27 14:33:00,
2013-02-27 09:38:00,40.3,36.5,29.87,SE,132,0.0,10.0,96,0.00,,,0.00,meteohub,2013-02-27 14:38:00,
2013-02-27 09:43:00,40.3,36.5,29.86,SE,145,1.0,10.0,96,0.00,,,0.00,meteohub,2013-02-27 14:43:00,
2013-02-27 09:48:00,40.5,36.5,29.85,ENE,77,0.0,10.0,96,0.00,,,0.00,meteohub,2013-02-27 14:48:00,
2013-02-27 09:53:00,40.5,36.5,29.85,NW,309,1.0,10.0,96,0.00,,,0.00,meteohub,2013-02-27 14:53:00,
2013-02-27 09:58:00,40.5,36.5,29.85,SSE,154,6.0,11.0,96,0.00,,,0.00,meteohub,2013-02-27 14:58:00,
2013-02-27 10:03:00,40.6,36.5,29.85,ESE,110,2.0,11.0,96,0.00,,,0.00,meteohub,2013-02-27 15:03:00,
2013-02-27 10:08:00,40.6,36.5,29.84,SE,132,2.0,11.0,96,0.00,,,0.00,meteohub,2013-02-27 15:08:00,
2013-02-27 10:13:00,40.6,36.7,29.84,South,177,2.0,9.0,96,0.00,,,0.00,meteohub,2013-02-27 15:13:00,
2013-02-27 10:18:00,40.6,36.7,29.84,SE,130,0.0,10.0,96,0.00,,,0.00,meteohub,2013-02-27 15:18:00,
2013-02-27 10:23:00,40.8,36.7,29.84,SE,125,8.0,10.0,96,0.00,,,0.00,meteohub,2013-02-27 15:23:00,
2013-02-27 10:28:00,40.8,36.7,29.84,SSE,160,0.0,11.0,96,0.00,,,0.00,meteohub,2013-02-27 15:28:00,
2013-02-27 10:33:00,40.8,36.7,29.84,North,355,4.0,11.0,96,0.00,,,0.00,meteohub,2013-02-27 15:33:00,
2013-02-27 10:38:00,40.8,36.7,29.84,SE,141,2.0,11.0,96,0.00,,,0.00,meteohub,2013-02-27 15:38:00,
2013-02-27 10:43:00,40.8,36.7,29.84,South,182,1.0,8.0,96,0.00,,,0.00,meteohub,2013-02-27 15:43:00,
2013-02-27 10:48:00,40.8,36.7,29.84,SE,145,5.0,10.0,96,0.00,,,0.00,meteohub,2013-02-27 15:48:00,
2013-02-27 10:53:00,40.8,36.7,29.83,South,177,8.0,10.0,96,0.00,,,0.00,meteohub,2013-02-27 15:53:00,
2013-02-27 10:58:00,41.0,36.7,29.83,SSE,158,4.0,10.0,96,0.00,,,0.00,meteohub,2013-02-27 15:58:00,
2013-02-27 11:03:00,40.8,36.7,29.83,SE,132,6.0,11.0,96,0.00,,,0.00,meteohub,2013-02-27 16:03:00,
2013-02-27 11:08:00,40.8,36.7,29.83,SE,145,5.0,11.0,96,0.00,,,0.00,meteohub,2013-02-27 16:08:00,
2013-02-27 11:13:00,40.8,36.7,29.83,SE,138,4.0,11.0,96,0.00,,,0.00,meteohub,2013-02-27 16:13:00,
2013-02-27 11:19:00,40.8,36.7,29.82,SE,134,3.0,9.0,96,0.00,,,0.00,meteohub,2013-02-27 16:19:00,
2013-02-27 11:24:00,40.8,36.7,29.82,SE,135,6.0,9.0,96,0.00,,,0.00,meteohub,2013-02-27 16:24:00,
2013-02-27 11:29:00,40.8,36.7,29.81,SSE,155,1.0,10.0,96,0.00,,,0.00,meteohub,2013-02-27 16:29:00,
2013-02-27 11:34:00,40.8,36.7,29.81,SE,146,2.0,11.0,96,0.00,,,0.00,meteohub,2013-02-27 16:34:00,
2013-02-27 11:39:00,41.0,36.7,29.81,SE,127,2.0,12.0,96,0.00,,,0.00,meteohub,2013-02-27 16:39:00,
2013-02-27 11:44:00,41.0,36.7,29.80,East,87,5.0,12.0,96,0.00,,,0.00,meteohub,2013-02-27 16:44:00,
2013-02-27 11:49:00,40.8,36.7,29.80,SSE,155,3.0,12.0,96,0.00,,,0.00,meteohub,2013-02-27 16:49:00,
2013-02-27 11:54:00,40.8,36.5,29.79,SE,144,5.0,12.0,96,0.00,,,0.00,meteohub,2013-02-27 16:54:00,
2013-02-27 11:59:00,41.0,36.5,29.79,SE,128,3.0,11.0,95,0.00,,,0.00,meteohub,2013-02-27 16:59:00,
2013-02-27 12:04:00,40.8,36.7,29.79,SSE,168,8.0,15.0,95,0.00,,,0.00,meteohub,2013-02-27 17:04:00,
2013-02-27 12:09:00,40.8,36.9,29.79,SE,134,4.0,15.0,95,0.00,,,0.00,meteohub,2013-02-27 17:09:00,
2013-02-27 12:14:00,40.8,37.0,29.78,SE,140,6.0,15.0,95,0.00,,,0.00,meteohub,2013-02-27 17:14:00,
2013-02-27 12:19:00,40.8,37.0,29.78,SE,146,0.0,12.0,95,0.00,,,0.00,meteohub,2013-02-27 17:19:00,
2013-02-27 12:24:00,40.8,37.0,29.77,SSE,166,5.0,12.0,95,0.00,,,0.00,meteohub,2013-02-27 17:24:00,
2013-02-27 12:29:00,40.8,37.0,29.78,SE,132,5.0,12.0,95,0.00,,,0.00,meteohub,2013-02-27 17:29:00,
2013-02-27 12:34:00,40.8,36.9,29.78,ENE,76,5.0,11.0,95,0.00,,,0.00,meteohub,2013-02-27 17:34:00,
2013-02-27 12:39:00,40.6,36.9,29.77,SSE,157,0.0,11.0,95,0.00,,,0.00,meteohub,2013-02-27 17:39:00,
2013-02-27 12:44:00,40.6,36.9,29.77,SSE,157,11.0,11.0,95,0.00,,,0.00,meteohub,2013-02-27 17:44:00,
2013-02-27 12:49:00,40.6,36.9,29.77,SE,134,10.0,12.0,95,0.00,,,0.00,meteohub,2013-02-27 17:49:00,
2013-02-27 12:54:00,40.6,37.0,29.76,ESE,117,3.0,12.0,95,0.00,,,0.00,meteohub,2013-02-27 17:54:00,
2013-02-27 12:59:00,40.6,37.0,29.77,SE,142,6.0,11.0,95,0.00,,,0.00,meteohub,2013-02-27 17:59:00,
2013-02-27 13:04:00,40.6,36.9,29.77,SE,133,0.0,13.0,95,0.00,,,0.00,meteohub,2013-02-27 18:04:00,
2013-02-27 13:09:00,40.6,36.9,29.77,SE,130,4.0,13.0,95,0.00,,,0.00,meteohub,2013-02-27 18:09:00,
2013-02-27 13:14:00,40.5,36.9,29.76,ESE,104,1.0,13.0,95,0.00,,,0.00,meteohub,2013-02-27 18:14:00,
2013-02-27 13:19:00,40.5,36.9,29.77,SSE,148,5.0,13.0,95,0.00,,,0.00,meteohub,2013-02-27 18:19:00,
2013-02-27 13:24:00,40.3,37.9,29.76,ESE,121,7.0,13.0,95,0.00,,,0.00,meteohub,2013-02-27 18:24:00,
2013-02-27 13:29:00,40.3,38.3,29.76,SE,141,1.0,10.0,95,0.00,,,0.00,meteohub,2013-02-27 18:29:00,
2013-02-27 13:34:00,40.3,38.7,29.76,SE,142,0.0,10.0,95,0.00,,,0.00,meteohub,2013-02-27 18:34:00,
2013-02-27 13:39:00,40.3,39.0,29.76,ESE,103,0.0,11.0,95,0.00,,,0.00,meteohub,2013-02-27 18:39:00,
2013-02-27 13:44:00,40.1,39.2,29.75,SSE,148,7.0,11.0,95,0.00,,,0.00,meteohub,2013-02-27 18:44:00,
2013-02-27 13:49:00,39.9,39.4,29.76,South,186,0.0,11.0,95,0.00,,,0.00,meteohub,2013-02-27 18:49:00,
2013-02-27 13:54:00,39.7,39.4,29.76,SE,145,1.0,8.0,95,0.00,,,0.00,meteohub,2013-02-27 18:54:00,
2013-02-27 13:59:00,39.7,39.4,29.75,ESE,113,5.0,11.0,95,0.00,,,0.00,meteohub,2013-02-27 18:59:00,
2013-02-27 14:04:00,39.6,39.2,29.75,SSE,165,1.0,11.0,95,0.00,,,0.00,meteohub,2013-02-27 19:04:00,
2013-02-27 14:09:00,39.4,39.4,29.75,South,173,4.0,11.0,95,0.00,,,0.00,meteohub,2013-02-27 19:09:00,
2013-02-27 14:14:00,39.2,39.6,29.75,SE,137,4.0,11.0,95,0.00,,,0.00,meteohub,2013-02-27 19:14:00,
2013-02-27 14:20:00,39.2,39.7,29.75,SE,136,1.0,10.0,95,0.00,,,0.00,meteohub,2013-02-27 19:20:00,
2013-02-27 14:25:00,39.0,39.9,29.76,SE,129,0.0,10.0,95,0.00,,,0.00,meteohub,2013-02-27 19:25:00,
2013-02-27 14:30:00,38.8,39.9,29.76,ENE,70,0.0,10.0,95,0.00,,,0.00,meteohub,2013-02-27 19:30:00,
2013-02-27 14:35:00,38.8,39.7,29.76,ENE,65,2.0,9.0,95,0.00,,,0.00,meteohub,2013-02-27 19:35:00,
2013-02-27 14:40:00,38.5,39.7,29.76,SE,134,7.0,8.0,95,0.00,,,0.00,meteohub,2013-02-27 19:40:00,
2013-02-27 14:45:00,38.3,39.9,29.75,SE,130,2.0,7.0,95,0.00,,,0.00,meteohub,2013-02-27 19:45:00,
2013-02-27 14:50:00,38.1,39.9,29.75,East,80,5.0,10.0,95,0.00,,,0.00,meteohub,2013-02-27 19:50:00,
2013-02-27 14:55:00,37.9,40.3,29.74,ESE,117,1.0,10.0,95,0.00,,,0.00,meteohub,2013-02-27 19:55:00,
2013-02-27 15:00:00,37.8,40.3,29.74,SSE,167,1.0,10.0,95,0.00,,,0.00,meteohub,2013-02-27 20:00:00,
2013-02-27 15:05:00,37.6,40.3,29.73,ESE,107,2.0,8.0,95,0.00,,,0.00,meteohub,2013-02-27 20:05:00,
2013-02-27 15:10:00,37.2,40.1,29.73,SSE,155,5.0,8.0,95,0.00,,,0.00,meteohub,2013-02-27 20:10:00,
2013-02-27 15:15:00,37.2,40.1,29.73,SE,140,1.0,9.0,95,0.00,,,0.00,meteohub,2013-02-27 20:15:00,
2013-02-27 15:20:00,37.2,40.1,29.73,East,84,1.0,9.0,95,0.00,,,0.00,meteohub,2013-02-27 20:20:00,
2013-02-27 15:25:00,37.4,40.5,29.74,ENE,74,0.0,10.0,95,0.00,,,0.00,meteohub,2013-02-27 20:25:00,
2013-02-27 15:30:00,37.6,40.6,29.73,East,90,0.0,8.0,95,0.00,,,0.00,meteohub,2013-02-27 20:30:00,
2013-02-27 15:35:00,37.6,40.6,29.73,SE,134,5.0,6.0,95,0.00,,,0.00,meteohub,2013-02-27 20:35:00,
2013-02-27 15:40:00,37.6,39.6,29.73,SSE,148,0.0,6.0,95,0.00,,,0.00,meteohub,2013-02-27 20:40:00,
2013-02-27 15:45:00,37.6,39.6,29.73,SE,134,0.0,6.0,95,0.00,,,0.00,meteohub,2013-02-27 20:45:00,
2013-02-27 15:50:00,37.6,40.6,29.73,South,171,5.0,6.0,95,0.00,,,0.00,meteohub,2013-02-27 20:50:00,
2013-02-27 15:55:00,37.8,40.6,29.72,ENE,77,1.0,7.0,95,0.00,,,0.00,meteohub,2013-02-27 20:55:00,
2013-02-27 16:00:00,37.8,41.0,29.72,NE,40,2.0,10.0,95,0.00,,,0.00,meteohub,2013-02-27 21:00:00,
2013-02-27 16:05:00,37.8,41.0,29.71,ESE,117,3.0,10.0,95,0.00,,,0.00,meteohub,2013-02-27 21:05:00,
2013-02-27 16:10:00,37.8,39.9,29.71,ESE,113,2.0,10.0,95,0.00,,,0.00,meteohub,2013-02-27 21:10:00,
2013-02-27 16:15:00,37.8,41.0,29.71,East,98,2.0,10.0,95,0.00,,,0.00,meteohub,2013-02-27 21:15:00,
2013-02-27 16:20:00,37.8,39.9,29.71,SE,141,4.0,9.0,95,0.00,,,0.00,meteohub,2013-02-27 21:20:00,
2013-02-27 16:25:00,37.6,39.7,29.70,SE,129,5.0,9.0,95,0.00,,,0.00,meteohub,2013-02-27 21:25:00,
2013-02-27 16:30:00,37.6,41.0,29.70,SW,217,2.0,9.0,95,0.00,,,0.00,meteohub,2013-02-27 21:30:00,
2013-02-27 16:35:00,37.2,41.0,29.69,SE,125,4.0,7.0,95,0.00,,,0.00,meteohub,2013-02-27 21:35:00,
2013-02-27 16:40:00,37.0,41.2,29.70,SE,140,0.0,7.0,95,0.00,,,0.00,meteohub,2013-02-27 21:40:00,
2013-02-27 16:45:00,37.0,40.3,29.70,SE,133,2.0,7.0,95,0.00,,,0.00,meteohub,2013-02-27 21:45:00,
2013-02-27 16:50:00,36.9,40.3,29.70,East,95,0.0,6.0,95,0.00,,,0.00,meteohub,2013-02-27 21:50:00,
2013-02-27 16:55:00,36.9,40.1,29.70,SE,127,2.0,6.0,95,0.00,,,0.00,meteohub,2013-02-27 21:55:00,
2013-02-27 17:00:00,36.7,40.1,29.69,NNW,346,1.0,6.0,95,0.00,,,0.00,meteohub,2013-02-27 22:00:00,
2013-02-27 17:06:00,36.7,39.9,29.70,South,171,5.0,6.0,95,0.00,,,0.00,meteohub,2013-02-27 22:06:00,
2013-02-27 17:11:00,36.5,39.9,29.70,SE,132,4.0,7.0,95,0.00,,,0.00,meteohub,2013-02-27 22:11:00,
2013-02-27 17:16:00,36.5,41.0,29.70,East,94,0.0,7.0,95,0.00,,,0.00,meteohub,2013-02-27 22:16:00,
2013-02-27 17:21:00,36.5,41.2,29.70,East,96,2.0,7.0,95,0.00,,,0.00,meteohub,2013-02-27 22:21:00,
2013-02-27 17:26:00,36.5,41.4,29.70,ESE,121,1.0,6.0,95,0.00,,,0.00,meteohub,2013-02-27 22:26:00,
2013-02-27 17:31:00,36.5,41.4,29.70,ESE,108,0.0,6.0,95,0.00,,,0.00,meteohub,2013-02-27 22:31:00,
2013-02-27 17:36:00,36.7,41.4,29.70,SE,126,2.0,6.0,95,0.00,,,0.00,meteohub,2013-02-27 22:36:00,
2013-02-27 17:41:00,36.7,41.4,29.70,SE,134,0.0,6.0,95,0.00,,,0.00,meteohub,2013-02-27 22:41:00,
2013-02-27 17:46:00,36.7,41.2,29.70,ENE,72,0.0,6.0,95,0.00,,,0.00,meteohub,2013-02-27 22:46:00,
2013-02-27 17:51:00,36.7,41.2,29.70,ENE,69,1.0,6.0,96,0.00,,,0.00,meteohub,2013-02-27 22:51:00,
2013-02-27 17:56:00,36.7,41.2,29.69,South,172,3.0,6.0,96,0.00,,,0.00,meteohub,2013-02-27 22:56:00,
2013-02-27 18:01:00,36.9,41.2,29.69,SE,134,2.0,7.0,95,0.00,,,0.00,meteohub,2013-02-27 23:01:00,
2013-02-27 18:06:00,36.9,41.2,29.69,SSE,163,0.0,7.0,95,0.00,,,0.00,meteohub,2013-02-27 23:06:00,
2013-02-27 18:11:00,36.9,41.2,29.69,WSW,245,0.0,7.0,95,0.00,,,0.00,meteohub,2013-02-27 23:11:00,
2013-02-27 18:16:00,36.9,41.4,29.69,SE,143,0.0,7.0,95,0.00,,,0.00,meteohub,2013-02-27 23:16:00,
2013-02-27 18:21:00,37.0,41.5,29.68,SSE,162,4.0,7.0,95,0.00,,,0.00,meteohub,2013-02-27 23:21:00,
2013-02-27 18:26:00,37.0,41.5,29.68,ESE,122,1.0,7.0,96,0.00,,,0.00,meteohub,2013-02-27 23:26:00,
2013-02-27 18:31:00,37.0,41.4,29.68,SE,141,7.0,8.0,96,0.00,,,0.00,meteohub,2013-02-27 23:31:00,
2013-02-27 18:36:00,37.2,41.4,29.68,ENE,77,0.0,8.0,96,0.00,,,0.00,meteohub,2013-02-27 23:36:00,
2013-02-27 18:41:00,37.2,41.4,29.67,East,95,1.0,8.0,96,0.00,,,0.00,meteohub,2013-02-27 23:41:00,
2013-02-27 18:46:00,37.2,41.2,29.67,SE,144,2.0,11.0,96,0.00,,,0.00,meteohub,2013-02-27 23:46:00,
2013-02-27 18:51:00,37.2,41.2,29.67,NNE,15,0.0,11.0,96,0.00,,,0.00,meteohub,2013-02-27 23:51:00,
2013-02-27 18:56:00,37.0,41.2,29.67,SE,142,0.0,11.0,96,0.00,,,0.00,meteohub,2013-02-27 23:56:00,
2013-02-27 19:01:00,37.0,41.2,29.67,West,278,7.0,7.0,96,0.00,,,0.00,meteohub,2013-02-28 00:01:00,
2013-02-27 19:06:00,37.0,41.2,29.66,East,99,0.0,9.0,96,0.00,,,0.00,meteohub,2013-02-28 00:06:00,
2013-02-27 19:11:00,36.9,41.4,29.65,NE,41,0.0,9.0,96,0.00,,,0.00,meteohub,2013-02-28 00:11:00,
2013-02-27 19:16:00,36.7,41.5,29.65,NE,42,1.0,9.0,96,0.00,,,0.00,meteohub,2013-02-28 00:16:00,
2013-02-27 19:21:00,36.3,41.4,29.65,NE,41,0.0,6.0,95,0.00,,,0.00,meteohub,2013-02-28 00:21:00,
2013-02-27 19:26:00,36.0,41.4,29.65,NE,41,0.0,2.0,96,0.00,,,0.00,meteohub,2013-02-28 00:26:00,
2013-02-27 19:31:00,35.8,41.4,29.65,NE,42,0.0,1.0,96,0.00,,,0.00,meteohub,2013-02-28 00:31:00,
2013-02-27 19:36:00,35.4,42.3,29.65,NE,42,0.0,1.0,96,0.00,,,0.00,meteohub,2013-02-28 00:36:00,
2013-02-27 19:41:00,35.2,42.3,29.65,NE,42,0.0,1.0,96,0.00,,,0.00,meteohub,2013-02-28 00:41:00,
2013-02-27 19:46:00,35.2,42.3,29.65,NE,42,0.0,1.0,95,0.00,,,0.00,meteohub,2013-02-28 00:46:00,
2013-02-27 19:51:00,35.1,42.3,29.64,NE,42,0.0,2.0,95,0.00,,,0.00,meteohub,2013-02-28 00:51:00,
2013-02-27 19:56:00,35.1,41.4,29.64,NE,41,0.0,2.0,96,0.00,,,0.00,meteohub,2013-02-28 00:56:00,
2013-02-27 20:01:00,35.1,41.5,29.64,NE,42,0.0,1.0,96,0.00,,,0.00,meteohub,2013-02-28 01:01:00,
2013-02-27 20:06:00,35.1,41.7,29.64,North,11,0.0,4.0,96,0.00,,,0.00,meteohub,2013-02-28 01:06:00,
2013-02-27 20:11:00,35.1,41.7,29.64,North,355,0.0,4.0,96,0.00,,,0.00,meteohub,2013-02-28 01:11:00,
2013-02-27 20:16:00,35.1,41.5,29.64,SSE,150,0.0,4.0,96,0.00,,,0.00,meteohub,2013-02-28 01:16:00,
2013-02-27 20:21:00,35.1,41.5,29.64,ESE,118,0.0,4.0,96,0.00,,,0.00,meteohub,2013-02-28 01:21:00,
2013-02-27 20:26:00,34.9,41.5,29.64,SE,144,2.0,4.0,96,0.00,,,0.00,meteohub,2013-02-28 01:26:00,
2013-02-27 20:31:00,35.1,41.4,29.64,North,9,1.0,5.0,96,0.00,,,0.00,meteohub,2013-02-28 01:31:00,
2013-02-27 20:37:00,34.9,41.4,29.63,SE,132,0.0,5.0,96,0.00,,,0.00,meteohub,2013-02-28 01:37:00,
2013-02-27 20:42:00,34.9,41.2,29.64,SSE,162,0.0,5.0,96,0.00,,,0.00,meteohub,2013-02-28 01:42:00,
2013-02-27 20:47:00,34.9,41.2,29.64,SSE,152,1.0,4.0,96,0.00,,,0.00,meteohub,2013-02-28 01:47:00,
2013-02-27 20:52:00,34.9,41.2,29.63,SSE,165,1.0,4.0,96,0.00,,,0.00,meteohub,2013-02-28 01:52:00,
2013-02-27 20:57:00,34.9,41.4,29.62,ESE,119,0.0,4.0,96,0.00,,,0.00,meteohub,2013-02-28 01:57:00,
2013-02-27 21:02:00,34.9,41.5,29.62,SE,134,4.0,5.0,96,0.00,,,0.00,meteohub,2013-02-28 02:02:00,
2013-02-27 21:07:00,34.9,41.5,29.62,SE,134,0.0,5.0,96,0.00,,,0.00,meteohub,2013-02-28 02:07:00,
2013-02-27 21:12:00,34.7,41.5,29.62,NE,42,0.0,5.0,96,0.00,,,0.00,meteohub,2013-02-28 02:12:00,
2013-02-27 21:17:00,34.7,41.5,29.61,NE,38,0.0,4.0,96,0.00,,,0.00,meteohub,2013-02-28 02:17:00,
2013-02-27 21:22:00,34.5,41.4,29.61,NE,46,1.0,6.0,96,0.00,,,0.00,meteohub,2013-02-28 02:22:00,
2013-02-27 21:27:00,34.5,41.4,29.61,ESE,117,0.0,6.0,96,0.00,,,0.00,meteohub,2013-02-28 02:27:00,
2013-02-27 21:32:00,34.5,41.2,29.61,East,96,0.0,6.0,96,0.00,,,0.00,meteohub,2013-02-28 02:32:00,
2013-02-27 21:37:00,34.5,41.2,29.61,East,96,0.0,4.0,96,0.00,,,0.00,meteohub,2013-02-28 02:37:00,
2013-02-27 21:42:00,34.5,41.0,29.61,SSE,165,0.0,4.0,96,0.00,,,0.00,meteohub,2013-02-28 02:42:00,
2013-02-27 21:47:00,34.5,41.0,29.61,North,9,0.0,4.0,96,0.00,,,0.00,meteohub,2013-02-28 02:47:00,
2013-02-27 21:52:00,34.3,41.0,29.61,North,9,0.0,4.0,96,0.00,,,0.00,meteohub,2013-02-28 02:52:00,
2013-02-27 21:57:00,34.3,41.0,29.61,North,9,0.0,4.0,96,0.00,,,0.00,meteohub,2013-02-28 02:57:00,
2013-02-27 22:02:00,34.3,41.0,29.61,NNE,24,0.0,2.0,96,0.00,,,0.00,meteohub,2013-02-28 03:02:00,
2013-02-27 22:07:00,34.3,41.0,29.61,North,355,0.0,2.0,96,0.00,,,0.00,meteohub,2013-02-28 03:07:00,
2013-02-27 22:12:00,34.3,41.0,29.61,North,355,0.0,2.0,96,0.00,,,0.00,meteohub,2013-02-28 03:12:00,
2013-02-27 22:17:00,34.3,40.8,29.62,North,355,0.0,2.0,96,0.00,,,0.00,meteohub,2013-02-28 03:17:00,
2013-02-27 22:22:00,34.3,40.8,29.62,NNE,13,0.0,1.0,96,0.00,,,0.00,meteohub,2013-02-28 03:22:00,
2013-02-27 22:27:00,34.3,40.6,29.62,ESE,120,0.0,2.0,96,0.00,,,0.00,meteohub,2013-02-28 03:27:00,
2013-02-27 22:32:00,34.3,40.6,29.62,ESE,120,0.0,4.0,96,0.00,,,0.00,meteohub,2013-02-28 03:32:00,
2013-02-27 22:37:00,34.3,40.5,29.61,ESE,119,0.0,4.0,96,0.00,,,0.00,meteohub,2013-02-28 03:37:00,
2013-02-27 22:42:00,34.3,40.5,29.61,ESE,121,0.0,2.0,96,0.00,,,0.00,meteohub,2013-02-28 03:42:00,
2013-02-27 22:47:00,34.3,40.3,29.61,ESE,121,0.0,2.0,96,0.00,,,0.00,meteohub,2013-02-28 03:47:00,
2013-02-27 22:52:00,34.3,40.3,29.61,ESE,108,0.0,2.0,96,0.00,,,0.00,meteohub,2013-02-28 03:52:00,
2013-02-27 22:57:00,34.3,39.2,29.61,ESE,107,0.0,2.0,96,0.00,,,0.00,meteohub,2013-02-28 03:57:00,
2013-02-27 23:02:00,34.3,39.2,29.61,ESE,107,0.0,1.0,96,0.00,,,0.00,meteohub,2013-02-28 04:02:00,
2013-02-27 23:07:00,34.3,39.0,29.60,NNE,15,0.0,2.0,96,0.00,,,0.00,meteohub,2013-02-28 04:07:00,
2013-02-27 23:12:00,34.3,39.9,29.61,East,99,0.0,2.0,96,0.00,,,0.00,meteohub,2013-02-28 04:12:00,
2013-02-27 23:17:00,34.3,39.9,29.61,ENE,57,0.0,3.0,96,0.00,,,0.00,meteohub,2013-02-28 04:17:00,
2013-02-27 23:22:00,34.3,39.0,29.60,ENE,57,0.0,3.0,96,0.00,,,0.00,meteohub,2013-02-28 04:22:00,
2013-02-27 23:27:00,34.3,38.8,29.60,ENE,57,0.0,3.0,96,0.00,,,0.00,meteohub,2013-02-28 04:27:00,
2013-02-27 23:32:00,34.3,38.8,29.60,ENE,61,2.0,2.0,96,0.00,,,0.00,meteohub,2013-02-28 04:32:00,
2013-02-27 23:37:00,34.3,38.7,29.60,ENE,61,0.0,2.0,96,0.00,,,0.00,meteohub,2013-02-28 04:37:00,
2013-02-27 23:42:00,34.3,38.7,29.60,ENE,63,0.0,2.0,96,0.00,,,0.00,meteohub,2013-02-28 04:42:00,
2013-02-27 23:47:00,34.3,38.7,29.60,ENE,63,0.0,2.0,96,0.00,,,0.00,meteohub,2013-02-28 04:47:00,
2013-02-27 23:52:00,34.3,38.7,29.60,ENE,63,0.0,2.0,96,0.00,,,0.00,meteohub,2013-02-28 04:52:00,
2013-02-27 23:57:00,34.3,38.7,29.60,ENE,63,0.0,1.0,96,0.00,,,0.00,meteohub,2013-02-28 04:57:00,